4 luglio 2022

Tempo Codice Tempo metereologico Temp. Vista Base nuvolosa Vento METAR/SPECI
10:30 pm
V
70 °F 6¼ mi+ - 300° 300° 4 kt METAR LFSL 042030Z AUTO 30004KT CAVOK 21/16 Q1021 NOSIG
10:00 pm
V
72 °F 6¼ mi+ - 290° 290° 3 kt METAR LFSL 042000Z AUTO 29003KT CAVOK 22/16 Q1020 NOSIG
9:30 pm
V
73 °F 6¼ mi+ - 320° 320° 5 kt METAR LFSL 041930Z AUTO 32005KT CAVOK 23/17 Q1020 NOSIG
9:00 pm
V
75 °F 6¼ mi+ - 320° 320° 7 kt METAR LFSL 041900Z AUTO 32007KT CAVOK 24/17 Q1020 NOSIG
8:30 pm
V
75 °F 6¼ mi+ - 330° 330° 7 kt METAR LFSL 041830Z AUTO 33007KT CAVOK 24/17 Q1020 NOSIG
8:00 pm
V
77 °F 6¼ mi+ - 330° 330° 10 kt METAR LFSL 041800Z AUTO 33010KT 300V360 CAVOK 25/17 Q1019 NOSIG
7:30 pm
V
77 °F 6¼ mi+ - 330° 330° 11 kt METAR LFSL 041730Z AUTO 33011KT CAVOK 25/18 Q1019 NOSIG
7:00 pm
V
79 °F 6¼ mi+ - 320° 320° 11 kt METAR LFSL 041700Z AUTO 32011KT CAVOK 26/17 Q1019 NOSIG
6:30 pm
V
81 °F 6¼ mi+ 16.000 ft 310° 310° 8 kt METAR LFSL 041630Z AUTO 31008KT 270V330 9999 FEW038 BKN160 27/16 Q1019 NOSIG
6:00 pm
V
81 °F 6¼ mi+ - 310° 310° 8 kt METAR LFSL 041600Z AUTO 31008KT 260V350 9999 FEW038 27/17 Q1019 NOSIG
5:30 pm
V
81 °F 6¼ mi+ - 330° 330° 8 kt METAR LFSL 041530Z AUTO 33008KT 300V020 CAVOK 27/16 Q1019 NOSIG
5:00 pm
V
81 °F 6¼ mi+ - 330° 330° 8 kt METAR LFSL 041500Z AUTO 33008KT CAVOK 27/17 Q1020 NOSIG
4:30 pm
V
81 °F 6¼ mi+ - 310° 310° 8 kt METAR LFSL 041430Z AUTO 31008KT 240V350 CAVOK 27/17 Q1020 NOSIG
4:00 pm
V
81 °F 6¼ mi+ 3.500 ft 330° 330° 9 kt METAR LFSL 041400Z AUTO 33009KT 290V010 9999 BKN035 27/18 Q1020 NOSIG
3:30 pm
V
81 °F 6¼ mi+ - Var Var 5 kt METAR LFSL 041330Z AUTO VRB05KT 9999 SCT035 27/18 Q1020 NOSIG
3:00 pm
V
79 °F 6¼ mi+ - 310° 310° 8 kt METAR LFSL 041300Z AUTO 31008KT 270V350 9999 FEW030 SCT092 26/18 Q1020 NOSIG
2:30 pm
V
79 °F 6¼ mi+ 8.400 ft 320° 320° 6 kt METAR LFSL 041230Z AUTO 32006KT 210V010 9999 FEW031 SCT037 BKN084 26/18 Q1020 NOSIG
2:00 pm
V
79 °F 6¼ mi+ - Var Var 4 kt METAR LFSL 041200Z AUTO VRB04KT 9999 ////// 26/18 Q1020
1:30 pm
V
77 °F 6¼ mi+ 8.600 ft 330° 330° 6 kt METAR LFSL 041130Z AUTO 33006KT 290V010 9999 FEW028 BKN086 25/17 Q1020 NOSIG
1:00 pm
V
77 °F 6¼ mi+ - 280° 280° 5 kt METAR LFSL 041100Z AUTO 28005KT 200V360 CAVOK 25/17 Q1020 NOSIG
12:30 pm
V
75 °F 6¼ mi+ - Var Var 3 kt METAR LFSL 041030Z AUTO VRB03KT CAVOK 24/17 Q1020 NOSIG
12:00 pm
V
73 °F 6¼ mi+ - Var Var 3 kt METAR LFSL 041000Z AUTO VRB03KT CAVOK 23/16 Q1020 NOSIG
11:30 am
V
70 °F 6¼ mi+ - Var Var 3 kt METAR LFSL 040930Z AUTO VRB03KT CAVOK 21/15 Q1020 NOSIG
11:00 am
V
68 °F 6¼ mi+ - Var Var 1 kt METAR LFSL 040900Z AUTO VRB01KT 9999 ///TCU 20/16 Q1021 BECMG SCT040 SCT100
10:30 am
V
68 °F 6¼ mi+ - Var Var 3 kt METAR LFSL 040830Z AUTO VRB03KT 9999 FEW030/// ///CB 20/16 Q1021 TEMPO VRB15G30KT 4000 TSRA
10:00 am
V
66 °F 6¼ mi+ - 310° 310° 5 kt METAR LFSL 040800Z AUTO 31005KT 240V340 9999 //////CB 19/16 Q1021 TEMPO VRB15G30KT 4000 TSRA
9:30 am
V
66 °F 6¼ mi+ - 300° 300° 5 kt METAR LFSL 040730Z AUTO 30005KT 270V330 9999 //////CB 19/15 Q1020 TEMPO VRB15G30KT 4000 TSRA
9:00 am
V
66 °F 6¼ mi+ - 310° 310° 4 kt METAR LFSL 040700Z AUTO 31004KT 250V340 9999 ///CB 19/15 Q1020 TEMPO VRB15G30KT 4000 TSRA
8:30 am
V
66 °F 6¼ mi+ - 280° 280° 3 kt METAR LFSL 040630Z AUTO 28003KT 210V320 CAVOK 19/15 Q1020 TEMPO VRB15G30KT 4000 TSRA BKN020 SCT040CB
8:00 am
V
66 °F 6¼ mi+ - Var Var 2 kt METAR LFSL 040600Z AUTO VRB02KT CAVOK 19/15 Q1019 TEMPO VRB15G30KT 4000 TSRA BKN020 SCT040CB
7:30 am
V
64 °F 6¼ mi+ - 090° 090° 4 kt METAR LFSL 040530Z AUTO 09004KT 050V140 9999 //////TCU 18/14 Q1018 TEMPO VRB15G30KT 4000 TSRA BKN020 SCT040CB
7:00 am
V
63 °F 6¼ mi+ - 320° 320° 4 kt METAR LFSL 040500Z AUTO 32004KT 280V360 9999 ///CB 17/14 Q1020 TEMPO VRB15G30KT 4000 TSRA
6:30 am
V
63 °F 6¼ mi+ - 330° 330° 3 kt METAR LFSL 040430Z AUTO 33003KT 9999 ///CB 17/14 Q1020 TEMPO VRB15G30KT 4000 TSRA
6:00 am
V
64 °F 6¼ mi+ - Var Var 3 kt METAR LFSL 040400Z AUTO VRB03KT 9999 ///CB 18/14 Q1020 TEMPO VRB15G30KT 4000 TSRA
5:30 am
V
64 °F 6¼ mi+ - Var Var 2 kt METAR LFSL 040330Z AUTO VRB02KT 9999 VCTS ///CB 18/14 Q1019 TEMPO VRB15G30KT 4000 TSRA
5:00 am
V
64 °F 6¼ mi+ - 300° 300° 4 kt METAR LFSL 040300Z AUTO 30004KT 240V340 9999 -RA VCTS ///CB 18/15 Q1019 TEMPO VRB15G30KT 4000 TSRA
4:30 am
V
64 °F 6¼ mi+ - 300° 300° 5 kt METAR LFSL 040230Z AUTO 30005KT 9999 //////TCU 18/14 Q1019 TEMPO VRB15G30KT 4000 TSRA BKN020 SCT040CB
4:00 am
V
66 °F 6¼ mi+ - 320° 320° 7 kt METAR LFSL 040200Z AUTO 32007KT 9999 //////CB 19/14 Q1019
3:30 am
V
64 °F 6¼ mi+ - Var Var 2 kt METAR LFSL 040130Z AUTO VRB02KT CAVOK 18/14 Q1019
3:00 am
V
66 °F 6¼ mi+ - 040° 040° 4 kt METAR LFSL 040100Z AUTO 04004KT 360V080 CAVOK 19/14 Q1019
2:30 am
V
66 °F 6¼ mi+ - 320° 320° 4 kt METAR LFSL 040030Z AUTO 32004KT 280V360 CAVOK 19/14 Q1019
2:00 am
V
68 °F 6¼ mi+ - 290° 290° 3 kt METAR LFSL 040000Z AUTO 29003KT 190V340 CAVOK 20/14 Q1019
1:30 am
V
68 °F 6¼ mi+ - 360° 360° 5 kt METAR LFSL 032330Z AUTO 36005KT 320V020 CAVOK 20/14 Q1019
1:00 am
V
70 °F 6¼ mi+ - 340° 340° 8 kt METAR LFSL 032300Z AUTO 34008KT CAVOK 21/14 Q1020
12:30 am
V
68 °F 6¼ mi+ - 320° 320° 7 kt METAR LFSL 032230Z AUTO 32007KT CAVOK 20/13 Q1021
12:00 am
V
70 °F 6¼ mi+ - 290° 290° 6 kt METAR LFSL 032200Z AUTO 29006KT CAVOK 21/14 Q1020

3 luglio 2022

Tempo Codice Tempo metereologico Temp. Vista Base nuvolosa Vento METAR/SPECI
11:30 pm
V
70 °F 6¼ mi+ - 280° 280° 4 kt METAR LFSL 032130Z AUTO 28004KT 230V300 CAVOK 21/14 Q1020
11:00 pm
V
72 °F 6¼ mi+ - 310° 310° 7 kt METAR LFSL 032100Z AUTO 31007KT 9999 //////CB 22/15 Q1020
10:30 pm
V
73 °F 6¼ mi+ - 320° 320° 7 kt METAR LFSL 032030Z AUTO 32007KT 9999 //////CB 23/15 Q1019
10:00 pm
V
75 °F 6¼ mi+ - 330° 330° 9 kt METAR LFSL 032000Z AUTO 33009KT CAVOK 24/15 Q1019 TEMPO 32015G25KT TSRA BECMG FEW060CB SCT100
9:30 pm
V
75 °F 6¼ mi+ - 330° 330° 7 kt METAR LFSL 031930Z AUTO 33007KT CAVOK 24/15 Q1019 TEMPO 32015G25KT TSRA BECMG FEW060CB SCT100
9:00 pm
V
77 °F 6¼ mi+ - 280° 280° 4 kt METAR LFSL 031900Z AUTO 28004KT 230V320 CAVOK 25/15 Q1020 TEMPO 32015G25KT TSRA BECMG FEW060CB SCT100
8:30 pm
V
77 °F 6¼ mi+ - 270° 270° 4 kt METAR LFSL 031830Z AUTO 27004KT 220V310 CAVOK 25/16 Q1020 TEMPO 32015G25KT TSRA BECMG FEW060CB SCT100
8:00 pm
V
79 °F 6¼ mi+ - 270° 270° 4 kt METAR LFSL 031800Z AUTO 27004KT 210V310 CAVOK 26/17 Q1019 TEMPO 32015G25KT TSRA BECMG FEW060CB SCT100
7:30 pm
V
81 °F 6¼ mi+ - 320° 320° 6 kt METAR LFSL 031730Z AUTO 32006KT 270V350 CAVOK 27/16 Q1018 TEMPO 32015G25KT TSRA BECMG FEW060CB SCT100
7:00 pm
V
82 °F 6¼ mi+ - 320° 320° 7 kt METAR LFSL 031700Z AUTO 32007KT 280V340 CAVOK 28/16 Q1018 BECMG FEW060CB SCT100
6:30 pm
V
82 °F 6¼ mi+ - 330° 330° 7 kt METAR LFSL 031630Z AUTO 33007KT 300V360 CAVOK 28/16 Q1018 BECMG FEW060CB SCT100
6:00 pm
V
82 °F 6¼ mi+ - 320° 320° 7 kt METAR LFSL 031600Z AUTO 32007KT 280V340 CAVOK 28/15 Q1018 NOSIG
5:30 pm
V
82 °F 6¼ mi+ - 310° 310° 6 kt METAR LFSL 031530Z AUTO 31006KT 250V010 CAVOK 28/15 Q1019 NOSIG
5:00 pm
V
82 °F 6¼ mi+ - 330° 330° 8 kt METAR LFSL 031500Z AUTO 33008KT 280V350 CAVOK 28/15 Q1019 NOSIG
4:30 pm
V
82 °F 6¼ mi+ - 290° 290° 8 kt METAR LFSL 031430Z AUTO 29008KT 230V330 CAVOK 28/16 Q1019 NOSIG
4:00 pm
V
82 °F 6¼ mi+ - 320° 320° 7 kt METAR LFSL 031400Z AUTO 32007KT 290V010 CAVOK 28/15 Q1020 NOSIG
3:30 pm
V
81 °F 6¼ mi+ - 320° 320° 7 kt METAR LFSL 031330Z AUTO 32007KT 300V360 CAVOK 27/15 Q1020 NOSIG
3:00 pm
V
81 °F 6¼ mi+ - 340° 340° 7 kt METAR LFSL 031300Z AUTO 34007KT 290V020 CAVOK 27/14 Q1020 NOSIG
2:30 pm
V
81 °F 6¼ mi+ - 340° 340° 7 kt METAR LFSL 031230Z AUTO 34007KT 300V020 CAVOK 27/14 Q1020 NOSIG
2:00 pm
V
81 °F 6¼ mi+ - 320° 320° 7 kt METAR LFSL 031200Z AUTO 32007KT 290V360 CAVOK 27/14 Q1020 NOSIG
1:30 pm
V
79 °F 6¼ mi+ - 360° 360° 5 kt METAR LFSL 031130Z AUTO 36005KT 270V080 CAVOK 26/15 Q1020 NOSIG
1:00 pm
V
79 °F 6¼ mi+ - 330° 330° 8 kt METAR LFSL 031100Z AUTO 33008KT 290V360 CAVOK 26/14 Q1020 NOSIG
12:30 pm
V
79 °F 6¼ mi+ - 330° 330° 7 kt METAR LFSL 031030Z AUTO 33007KT 310V010 CAVOK 26/10 Q1020 NOSIG
12:00 pm
V
77 °F 6¼ mi+ - 330° 330° 7 kt METAR LFSL 031000Z AUTO 33007KT 290V360 CAVOK 25/14 Q1020 NOSIG
11:30 am
V
75 °F 6¼ mi+ - 330° 330° 6 kt METAR LFSL 030930Z AUTO 33006KT 300V010 CAVOK 24/15 Q1020 NOSIG
11:00 am
V
73 °F 6¼ mi+ - 310° 310° 5 kt METAR LFSL 030900Z AUTO 31005KT 270V340 CAVOK 23/16 Q1020 NOSIG
10:30 am
V
72 °F 6¼ mi+ - 320° 320° 3 kt METAR LFSL 030830Z AUTO 32003KT 280V360 CAVOK 22/16 Q1020 NOSIG
10:00 am
V
72 °F 6¼ mi+ - 300° 300° 4 kt METAR LFSL 030800Z AUTO 30004KT 260V340 9999 ///TCU 22/15 Q1020 BECMG NSC
9:30 am
V
72 °F 6¼ mi+ - Var Var 3 kt METAR LFSL 030730Z AUTO VRB03KT CAVOK 22/15 Q1020 NOSIG
9:00 am
V
72 °F 6¼ mi+ - 100° 100° 1 kt METAR LFSL 030700Z AUTO 10001KT CAVOK 22/14 Q1020 NOSIG
8:30 am
V
66 °F 6¼ mi+ - Var Var 1 kt METAR LFSL 030630Z AUTO VRB01KT CAVOK 19/14 Q1020 NOSIG
8:00 am
V
64 °F 6¼ mi+ - 340° 340° 1 kt METAR LFSL 030600Z AUTO 34001KT CAVOK 18/14 Q1020 NOSIG
7:30 am
V
61 °F 6¼ mi+ - Var Var 2 kt METAR LFSL 030530Z AUTO VRB02KT CAVOK 16/14 Q1020 NOSIG
7:00 am
V
59 °F 6¼ mi+ - Var Var 3 kt METAR LFSL 030500Z AUTO VRB03KT CAVOK 15/13 Q1020 NOSIG
6:30 am
V
59 °F 6¼ mi+ - Var Var 2 kt METAR LFSL 030430Z AUTO VRB02KT CAVOK 15/13 Q1020 NOSIG
6:00 am
V
59 °F 6¼ mi+ - Var Var 1 kt METAR LFSL 030400Z AUTO VRB01KT CAVOK 15/13 Q1020 NOSIG
5:30 am
V
61 °F 6¼ mi+ - 320° 320° 4 kt METAR LFSL 030330Z AUTO 32004KT CAVOK 16/13 Q1019 NOSIG
5:00 am
V
57 °F 6¼ mi+ - Var Var 2 kt METAR LFSL 030300Z AUTO VRB02KT CAVOK 14/13 Q1019 NOSIG
4:30 am
V
57 °F 6¼ mi+ - Var 000° 0 kt METAR LFSL 030230Z AUTO 00000KT CAVOK 14/13 Q1019
4:00 am
V
57 °F 6¼ mi+ - Var Var 2 kt METAR LFSL 030200Z AUTO VRB02KT CAVOK 14/13 Q1020
3:30 am
V
59 °F 6¼ mi+ - 310° 310° 2 kt METAR LFSL 030130Z AUTO 31002KT CAVOK 15/13 Q1020
3:00 am
V
59 °F 6¼ mi+ - Var 000° 0 kt METAR LFSL 030100Z AUTO 00000KT CAVOK 15/13 Q1020
2:30 am
V
59 °F 6¼ mi+ - Var 000° 0 kt METAR LFSL 030030Z AUTO 00000KT CAVOK 15/13 Q1020
2:00 am
V
59 °F 6¼ mi+ - 290° 290° 2 kt METAR LFSL 030000Z AUTO 29002KT CAVOK 15/13 Q1020
1:30 am
V
59 °F 6¼ mi+ - 300° 300° 1 kt METAR LFSL 022330Z AUTO 30001KT CAVOK 15/13 Q1020
1:00 am
V
61 °F 6¼ mi+ - 290° 290° 1 kt METAR LFSL 022300Z AUTO 29001KT CAVOK 16/13 Q1020
12:30 am
V
61 °F 6¼ mi+ - Var 000° 0 kt METAR LFSL 022230Z AUTO 00000KT CAVOK 16/14 Q1020
12:00 am
V
63 °F 6¼ mi+ - Var 000° 0 kt METAR LFSL 022200Z AUTO 00000KT CAVOK 17/14 Q1020

2 luglio 2022

Tempo Codice Tempo metereologico Temp. Vista Base nuvolosa Vento METAR/SPECI
11:30 pm
V
64 °F 6¼ mi+ - Var 000° 0 kt METAR LFSL 022130Z AUTO 00000KT CAVOK 18/14 Q1020
11:00 pm
V
66 °F 6¼ mi+ - 310° 310° 2 kt METAR LFSL 022100Z AUTO 31002KT CAVOK 19/14 Q1020
10:30 pm
V
68 °F 6¼ mi+ - 300° 300° 1 kt METAR LFSL 022030Z AUTO 30001KT CAVOK 20/15 Q1020
10:00 pm
V
72 °F 6¼ mi+ - 290° 290° 3 kt METAR LFSL 022000Z AUTO 29003KT CAVOK 22/15 Q1019 NOSIG
9:30 pm
V
75 °F 6¼ mi+ - Var Var 3 kt METAR LFSL 021930Z AUTO VRB03KT CAVOK 24/15 Q1019 NOSIG
9:00 pm
V
79 °F 6¼ mi+ - 340° 340° 4 kt METAR LFSL 021900Z AUTO 34004KT CAVOK 26/14 Q1019 NOSIG
8:30 pm
V
79 °F 6¼ mi+ - 340° 340° 6 kt METAR LFSL 021830Z AUTO 34006KT CAVOK 26/14 Q1019 NOSIG
8:00 pm
V
81 °F 6¼ mi+ - 330° 330° 6 kt METAR LFSL 021800Z AUTO 33006KT 310V010 CAVOK 27/14 Q1019 NOSIG
7:30 pm
V
81 °F 6¼ mi+ - 330° 330° 6 kt METAR LFSL 021730Z AUTO 33006KT CAVOK 27/14 Q1019 NOSIG
7:00 pm
V
82 °F 6¼ mi+ - 330° 330° 6 kt METAR LFSL 021700Z AUTO 33006KT 300V040 CAVOK 28/14 Q1019 NOSIG
6:30 pm
V
84 °F 6¼ mi+ - Var Var 3 kt METAR LFSL 021630Z AUTO VRB03KT CAVOK 29/11 Q1019 NOSIG
6:00 pm
V
84 °F 6¼ mi+ - Var Var 3 kt METAR LFSL 021600Z AUTO VRB03KT CAVOK 29/10 Q1019 NOSIG
5:30 pm
V
84 °F 6¼ mi+ - Var Var 3 kt METAR LFSL 021530Z AUTO VRB03KT CAVOK 29/11 Q1019 NOSIG
5:00 pm
V
82 °F 6¼ mi+ - 170° 170° 4 kt METAR LFSL 021500Z AUTO 17004KT 090V250 CAVOK 28/10 Q1019 NOSIG
Dati più vecchi

Scarica la nostra applicazione

Facile accesso a tutte le previsioni dell'aviazione sul tuo cellulare e tablet.
Con molte caratteristiche non disponibili sul sito web, come il supporto offline e una lista personale di aeroporti.

Noi e le terze parti seguiamo il tuo comportamento in internet sul nostro sito web con i cookie. Se continui, riteniamo che tu sia d'accordo con la nostra politica sui cookie. Per saperne di più